Home > Weather > Bata > Past weeks

Flag for Equatorial Guinea Weather for the Past 2 Weeks in Bata, Equatorial Guinea

Now
79 °F

Thunderstorms. Partly cloudy.


Feels Like: 83 °F
Forecast: 81 / 88 °F
Wind: 2 mph from North

Location: Libreville Airport

Current Time: May 3, 2016 at 6:19:58 AM

Latest Report: May 3, 2016 at 5:00 AM


Visibility: 5 mi

Pressure: 29.83 "Hg

Humidity: 94%

Dew Point: 77 °F

Location of BataLocation

Historic Weather in Bata — Graph

°F

Bata Temperature Yesterday

Maximum temperature yesterday: 88 °F (at 12:00 PM)
Minimum temperature yesterday: 77 °F (at 4:00 AM)
Average temperature yesterday: 83 °F

High & Low Weather Summary for the Past Weeks

 TemperatureHumidityPressure
High90 °F (Apr 25, 2:00 PM)100% (Apr 19, 2:00 AM)29.95 "Hg (Apr 19, 2:00 AM)
Low73 °F (Apr 23, 3:03 AM)63% (Apr 25, 2:00 PM)29.71 "Hg (Apr 23, 5:00 PM)
Average82 °F86%29.82 "Hg
* Reported Apr 18 4:00 AM — May 3 4:00 AM, Bata, Weather by CustomWeather, © 2016

Note: Actual official high and low records may vary slightly from our data, if they occured in-between our weather recording intervals... More about our weather records

Advertising

Bata Weather History for the Previous 24 Hours

Scroll right to see more
 ConditionsComfort  
Time TempWeatherWind HumidityBarometerVisibility
4:00 AM
Tue, May 3
79 °FThunderstorms. Passing clouds.1 mph94%29.83 "Hg5 mi
3:00 AM77 °FThunderstorms. Passing clouds.2 mph100%29.83 "Hg5 mi
2:00 AM77 °FThunderstorms. Passing clouds.2 mph100%29.83 "Hg5 mi
1:00 AM79 °FThunderstorms. Passing clouds.7 mph94%29.86 "Hg5 mi
12:00 AM79 °FThunderstorms. Partly cloudy.1 mph94%29.83 "Hg5 mi
11:00 PM
Mon, May 2
81 °FThunderstorms. Partly cloudy.3 mph94%29.83 "Hg5 mi
10:00 PM82 °FThunderstorms. Partly cloudy.6 mph89%29.83 "Hg5 mi
9:00 PM84 °FPassing clouds.6 mph84%29.80 "HgN/A
8:00 PM84 °FPassing clouds.7 mph84%29.77 "HgN/A
7:00 PM82 °FPassing clouds.6 mph89%29.77 "HgN/A
6:00 PM84 °FScattered clouds.7 mph84%29.74 "HgN/A
5:00 PM86 °FScattered clouds.8 mph79%29.74 "HgN/A
4:00 PM86 °FScattered clouds.7 mph79%29.74 "HgN/A
3:00 PM88 °FPassing clouds.7 mph75%29.74 "HgN/A
2:00 PM88 °FPassing clouds.7 mph75%29.77 "HgN/A
1:00 PM88 °FPassing clouds.6 mph75%29.80 "HgN/A
12:00 PM88 °FPassing clouds.12 mph75%29.80 "HgN/A
11:00 AM86 °FPassing clouds.9 mph84%29.83 "Hg6 mi
10:00 AM84 °FPartly sunny.12 mph84%29.86 "Hg6 mi
9:00 AM82 °FPartly sunny.3 mph89%29.86 "Hg5 mi
8:00 AM79 °FThunderstorms. Partly sunny.2 mph100%29.83 "Hg5 mi
7:00 AM77 °FThunderstorms. Partly sunny.5 mph100%29.80 "Hg5 mi
6:00 AM77 °FThunderstorms. Passing clouds.No wind100%29.80 "Hg5 mi
Weather by CustomWeather, © 2016

See weather overviewHow to use our weather pages